Meteo pe oră la Al Mafraq

Astăzi, 28 Ianuarie, Joi

Timp Temperatura Precipitaţii Vânt Presiune Umiditate
00:00 +10°C° 0 mm 2 m/s 699 mmHg 50%
01:00 +9°C° 0 mm 3 m/s 699 mmHg 52%
02:00 +9°C° 0 mm 3 m/s 699 mmHg 53%
03:00 +9°C° 0 mm 3 m/s 699 mmHg 63%
04:00 +9°C° 0 mm 3 m/s 699 mmHg 72%
05:00 +9°C° 0 mm 3 m/s 699 mmHg 82%
06:00 +8°C° 0.1 mm 4 m/s 700 mmHg 83%
07:00 +8°C° 0.1 mm 5 m/s 700 mmHg 84%
08:00 +8°C° 0.1 mm 5 m/s 701 mmHg 86%
09:00 +8°C° 0.1 mm 6 m/s 701 mmHg 80%
10:00 +9°C° 0.1 mm 6 m/s 701 mmHg 73%
11:00 +9°C° 0.1 mm 6 m/s 701 mmHg 67%
12:00 +9°C° 0.1 mm 6 m/s 701 mmHg 65%
13:00 +10°C° 0.1 mm 6 m/s 701 mmHg 63%
14:00 +10°C° 0.1 mm 6 m/s 701 mmHg 61%
15:00 +9°C° 0.1 mm 5 m/s 701 mmHg 65%
16:00 +10°C° 0.1 mm 4 m/s 701 mmHg 70%
17:00 +8°C° 0.1 mm 4 m/s 701 mmHg 74%
18:00 +8°C° 0 mm 3 m/s 701 mmHg 77%
19:00 +8°C° 0 mm 2 m/s 701 mmHg 81%
20:00 +9°C° 0 mm 1 m/s 701 mmHg 84%
21:00 +8°C° 0 mm 1 m/s 701 mmHg 85%
22:00 +8°C° 0 mm 1 m/s 701 mmHg 86%
23:00 +7°C° 0 mm 1 m/s 701 mmHg 87%

Mâine, 29 Ianuarie, Vineri

Timp Temperatura Precipitaţii Vânt Presiune Umiditate
00:00 +7°C° 0 mm 1 m/s 700 mmHg 86%
01:00 +6°C° 0 mm 2 m/s 700 mmHg 86%
02:00 +6°C° 0 mm 2 m/s 699 mmHg 86%
03:00 +5°C° 0 mm 3 m/s 699 mmHg 85%
04:00 +4°C° 0 mm 3 m/s 699 mmHg 85%
05:00 +4°C° 0 mm 4 m/s 699 mmHg 84%
06:00 +5°C° 0 mm 5 m/s 699 mmHg 80%
07:00 +4°C° 0 mm 6 m/s 699 mmHg 75%
08:00 +5°C° 0 mm 7 m/s 699 mmHg 71%
09:00 +5°C° 0.2 mm 8 m/s 699 mmHg 73%
10:00 +3°C° 0.2 mm 9 m/s 699 mmHg 76%
11:00 +3°C° 0.2 mm 9 m/s 699 mmHg 78%
12:00 +3°C° 0.4 mm 9 m/s 699 mmHg 80%
13:00 +5°C° 0.4 mm 9 m/s 699 mmHg 82%
14:00 +5°C° 0.4 mm 8 m/s 699 mmHg 84%
15:00 +5°C° 0.3 mm 8 m/s 700 mmHg 83%
16:00 +5°C° 0.3 mm 7 m/s 700 mmHg 81%
17:00 +4°C° 0.3 mm 6 m/s 700 mmHg 79%
18:00 +4°C° 0.1 mm 6 m/s 701 mmHg 81%
19:00 +4°C° 0.1 mm 6 m/s 701 mmHg 83%
20:00 +4°C° 0.1 mm 6 m/s 702 mmHg 86%
21:00 +5°C° 0.1 mm 5 m/s 702 mmHg 87%
22:00 +3°C° 0.1 mm 5 m/s 702 mmHg 88%
23:00 +4°C° 0.1 mm 4 m/s 702 mmHg 89%

Poimâine, 30 Ianuarie, Sâmbătă

Timp Temperatura Precipitaţii Vânt Presiune Umiditate
00:00 +4°C° 0.1 mm 4 m/s 702 mmHg 89%
01:00 +4°C° 0.1 mm 4 m/s 702 mmHg 89%
02:00 +4°C° 0.1 mm 3 m/s 702 mmHg 89%
03:00 +4°C° 0.1 mm 3 m/s 702 mmHg 90%
04:00 +4°C° 0.1 mm 3 m/s 702 mmHg 91%
05:00 +3°C° 0.1 mm 3 m/s 702 mmHg 91%
06:00 +4°C° 0.1 mm 4 m/s 703 mmHg 89%
07:00 +5°C° 0.1 mm 5 m/s 703 mmHg 87%
08:00 +5°C° 0.1 mm 5 m/s 704 mmHg 85%
09:00 +5°C° 0 mm 6 m/s 704 mmHg 82%
10:00 +7°C° 0 mm 6 m/s 704 mmHg 78%
11:00 +7°C° 0 mm 6 m/s 704 mmHg 74%
12:00 +8°C° 0 mm 5 m/s 703 mmHg 69%
13:00 +9°C° 0 mm 5 m/s 703 mmHg 64%
14:00 +10°C° 0 mm 5 m/s 703 mmHg 59%
15:00 +10°C° 0 mm 4 m/s 703 mmHg 62%
16:00 +10°C° 0 mm 3 m/s 703 mmHg 65%
17:00 +9°C° 0 mm 2 m/s 703 mmHg 68%
18:00 +8°C° 0 mm 2 m/s 703 mmHg 70%
19:00 +8°C° 0 mm 2 m/s 703 mmHg 71%
20:00 +7°C° 0 mm 2 m/s 703 mmHg 72%
21:00 +7°C° 0 mm 3 m/s 703 mmHg 70%
22:00 +7°C° 0 mm 3 m/s 703 mmHg 68%
23:00 +7°C° 0 mm 3 m/s 703 mmHg 66%

31 Ianuarie, Duminică

Timp Temperatura Precipitaţii Vânt Presiune Umiditate
00:00 +7°C° 0 mm 3 m/s 703 mmHg 64%
01:00 +6°C° 0 mm 4 m/s 702 mmHg 62%
02:00 +5°C° 0 mm 4 m/s 702 mmHg 61%
03:00 +5°C° 0 mm 4 m/s 702 mmHg 60%
04:00 +5°C° 0 mm 4 m/s 702 mmHg 58%
05:00 +5°C° 0 mm 4 m/s 701 mmHg 57%
06:00 +6°C° 0 mm 4 m/s 702 mmHg 56%
07:00 +7°C° 0 mm 4 m/s 702 mmHg 54%
08:00 +7°C° 0 mm 5 m/s 703 mmHg 52%
09:00 +9°C° 0 mm 5 m/s 703 mmHg 52%
10:00 +10°C° 0 mm 5 m/s 703 mmHg 52%
11:00 +12°C° 0 mm 4 m/s 703 mmHg 52%
12:00 +12°C° 0 mm 4 m/s 703 mmHg 53%
13:00 +13°C° 0 mm 3 m/s 703 mmHg 53%
14:00 +13°C° 0 mm 3 m/s 703 mmHg 54%
15:00 +13°C° 0 mm 3 m/s 703 mmHg 57%
16:00 +13°C° 0 mm 2 m/s 703 mmHg 61%
17:00 +12°C° 0 mm 2 m/s 703 mmHg 64%
18:00 +12°C° 0 mm 1 m/s 703 mmHg 67%
19:00 +11°C° 0 mm 1 m/s 704 mmHg 70%
20:00 +10°C° 0 mm 1 m/s 704 mmHg 73%
21:00 +10°C° 0 mm 1 m/s 704 mmHg 73%
22:00 +9°C° 0 mm 2 m/s 704 mmHg 73%
23:00 +9°C° 0 mm 2 m/s 704 mmHg 73%

1 Februarie, Luni

Timp Temperatura Precipitaţii Vânt Presiune Umiditate
00:00 +9°C° 0 mm 2 m/s 704 mmHg 74%
01:00 +9°C° 0 mm 2 m/s 704 mmHg 74%
02:00 +9°C° 0 mm 2 m/s 704 mmHg 74%
03:00 +9°C° 0 mm 3 m/s 704 mmHg 73%
04:00 +9°C° 0 mm 3 m/s 704 mmHg 72%
05:00 +9°C° 0 mm 3 m/s 703 mmHg 71%
06:00 +9°C° 0 mm 3 m/s 704 mmHg 70%
07:00 +10°C° 0 mm 3 m/s 704 mmHg 69%
08:00 +10°C° 0 mm 4 m/s 705 mmHg 67%
09:00 +12°C° 0 mm 4 m/s 705 mmHg 59%
10:00 +14°C° 0 mm 5 m/s 705 mmHg 51%
11:00 +15°C° 0 mm 6 m/s 705 mmHg 43%
12:00 +16°C° 0 mm 6 m/s 705 mmHg 39%
13:00 +17°C° 0 mm 6 m/s 704 mmHg 34%
14:00 +17°C° 0 mm 6 m/s 704 mmHg 30%
15:00 +17°C° 0 mm 6 m/s 703 mmHg 32%
16:00 +16°C° 0 mm 5 m/s 703 mmHg 34%
17:00 +15°C° 0 mm 4 m/s 703 mmHg 37%
18:00 +14°C° 0 mm 4 m/s 703 mmHg 37%
19:00 +14°C° 0 mm 4 m/s 703 mmHg 38%
20:00 +13°C° 0 mm 4 m/s 703 mmHg 39%
21:00 +13°C° 0 mm 4 m/s 703 mmHg 39%
22:00 +13°C° 0 mm 4 m/s 703 mmHg 39%
23:00 +12°C° 0 mm 4 m/s 703 mmHg 38%

2 Februarie, Marţi

Timp Temperatura Precipitaţii Vânt Presiune Umiditate
00:00 +12°C° 0 mm 5 m/s 703 mmHg 40%
01:00 +10°C° 0 mm 5 m/s 702 mmHg 41%
02:00 +10°C° 0 mm 5 m/s 702 mmHg 42%
03:00 +10°C° 0 mm 5 m/s 702 mmHg 44%
04:00 +10°C° 0 mm 4 m/s 702 mmHg 46%
05:00 +10°C° 0 mm 4 m/s 701 mmHg 48%
06:00 +10°C° 0 mm 4 m/s 702 mmHg 48%
07:00 +10°C° 0 mm 3 m/s 702 mmHg 49%
08:00 +11°C° 0 mm 3 m/s 702 mmHg 49%
09:00 +13°C° 0 mm 3 m/s 702 mmHg 44%
10:00 +14°C° 0 mm 4 m/s 702 mmHg 39%
11:00 +17°C° 0 mm 4 m/s 703 mmHg 34%
12:00 +18°C° 0 mm 4 m/s 702 mmHg 33%
13:00 +19°C° 0 mm 4 m/s 702 mmHg 32%
14:00 +20°C° 0 mm 4 m/s 701 mmHg 30%
15:00 +19°C° 0 mm 3 m/s 701 mmHg 35%
16:00 +17°C° 0 mm 2 m/s 701 mmHg 39%
17:00 +16°C° 0 mm 1 m/s 700 mmHg 44%
18:00 +16°C° 0 mm 1 m/s 700 mmHg 45%
19:00 +15°C° 0 mm 1 m/s 700 mmHg 47%
20:00 +14°C° 0 mm 1 m/s 701 mmHg 48%
21:00 +14°C° 0 mm 2 m/s 701 mmHg 49%
22:00 +14°C° 0 mm 2 m/s 700 mmHg 49%
23:00 +13°C° 0 mm 2 m/s 700 mmHg 50%
Arată mai mult

Formular de consimțământ

Meteoprog și furnizorii noștri de servicii pot stoca și accesa date personale, precum cookies, identificatori de dispozitiv sau alte tehnologii similare pe dispozitivul dumneavoastră și procesa astfel de date pentru a personaliza conținutul și reclamele, dar și pentru a oferi caracteristici de social media și pentru a analiza traficul.

  • Stocarea și/sau accesarea informațiilor pe dispozitivul dumneavoastră

    Cookies, identificatori de dispozitiv sau alte informații pot fi stocate sau accesate pe dispozitiv în scopurile indicate mai sus.

  • Reclame și conținut personalizat, evaluarea reclamelor și a conținutului, informații despre audiențe și dezvoltarea produselor

    Reclamele și conținutul pot fi personalizate pe baza unui profil. Pot fi adăugate date suplimentare pentru a personaliza mai bine reclamele și conținutul. Performanța reclamelor și conținutului poate fi măsurată. Pot fi obținute informații despre utilizatorii care au văzut reclamele și conținutul. Aceste date pot fi utilizate pentru a dezvolta sau îmbunătăți experiența utilizatorilor, sistemele și software-ul.

Dând clic pe ‘Sunt de acord’, permiteți utilizarea cookie-urilor menționate, a identificatorilor de dispozitiv, balizelor web sau altor tehnologii similare. Setările pot fi modificate din browser-ul dispozitivului dumneavoastră.

În anumite scopuri, interesele legitime pot prima asupra consimțământului. Puteți citi mai multe informații în acest sens în Politica privind Confidențialitatea Datelor și Cookie.